map of LCG home
LCG - Airport
Location
City:  A Coruņa, Galicia, Spain
Name:A Coruņa Airport
Old (Alt.):Alvedro Airport
ICAO:LECO
IATA:LCG

Details
Type:Airport (Aerodrome, Airfield)
Use:Public/Civil
Latitude:43°18'07"N (43.302061)
Longitude:8°22'38"W (-8.377255)
Datum:WGS 1984
Elevation:326 ft (99 m)
Variation:2.31°W (WMM2015 magnetic declination)
0.13° annual change
Runways:1
Longest:6365 × 148 ft (1940 × 45 m), paved

Time
Time Zone:UTC+1 (DST+2)
Local Time:

Weather
METAR:LECO 180100Z AUTO 00000KT 9999 OVC024/// 17/16 Q1016
TAF:LECO 172000Z 1721/1821 36008KT 9999 FEW015 BKN035 TX23/1815Z TN16/1803Z PROB40
TEMPO 1800/1809 4000 BR BKN012 PROB40
TEMPO 1809/1821 RA SHRA SCT030TCU PROB30
TEMPO 1812/1821 4000 SHRA BKN010 BKN025CB
TEMPO 1818/1821 BKN008

Related Locations
Nearby:
Farthest:NZPH: 12436 mi / 20014 km
Pudding Hill, CAN, NZ

Find:

   beyond  
but within

Other Information
Maps:
NOTAMs:
Links:
Sources:

  
  • flag of Spain
  • flag of Galicia
  

Sectional Chart

Flight Planning
at skyvector.com

Satellite Image

Google Maps Satellite view

 

Copyright © 2004-2018 Karl L. Swartz. All rights reserved.
The Great Circle Mapper name and logo are trademarks of the Great Circle Mapper.
All other trademarks mentioned herein belong to their respective owners.
Please see credits for attibutions and further copyright information.

  Follow gcmap on Facebook Follow gcmap on Twitter Follow gcmap on Google+ GCmap on LinkedIn

hCard Microformat

Geo Microformat